[[{"header":{"parameterUnit":"m.s-1","parameterCategory":1,"la1":30.2991,"la2":30.254,"lo1":-89.0895,"lo2":-89.0444,"dy":0.0017,"dx":0.0017,"nx":28,"ny":28,"refTime":"2024-12-04T03:00:00:Z","depth":0,"parameterNumber":2,"parameterNumberName":"U-component_of_WINDS"},"data":[0,0,0,0,0,0,0,0,0,0,0,0,0,0,0,0,0,0,0,0,0,0,0,0,0,0,0,0,0,0,0,0,0,0,0,0,0,0,0,0,0,0,0,0,0,0,0,0,0,0,0,0,0,0,0,0,0,0,-1.9639,-1.9639,0,-1.9652,-1.9653,-1.9653,-1.9648,-1.9648,-1.9648,-1.9647,-1.966,-1.966,-1.9661,0,0,0,0,0,0,0,0,0,0,0,0,0,-1.9611,-1.9611,-1.9639,-1.9639,-1.964,-1.9652,-1.9653,-1.9653,-1.9648,-1.9648,-1.9648,-1.9647,-1.966,-1.966,-1.9661,0,0,0,0,0,0,0,0,0,0,0,0,0,-1.9623,-1.9611,-1.9639,-1.9639,-1.9639,-1.9652,-1.9653,-1.9653,-1.9648,-1.9648,-1.9647,-1.9647,-1.9659,-1.966,-1.9661,-1.9675,0,0,-1.9664,-1.9664,0,0,0,0,0,0,0,0,-1.9622,-1.9624,-1.9639,-1.9639,-1.9639,-1.9648,-1.9647,-1.966,-1.9648,-1.9645,-1.9647,-1.9647,-1.9656,-1.9657,-1.9661,-1.9676,-1.9676,-1.9664,-1.9665,-1.9665,-1.9665,0,0,0,0,0,0,0,-1.9622,-1.9624,-1.9644,-1.9639,-1.9639,-1.9638,-1.964,-1.9649,-1.9653,-1.9645,-1.9645,-1.9646,-1.9656,-1.966,-1.9661,-1.9677,-1.9664,-1.9665,-1.9665,-1.9666,-1.9704,-1.9705,0,0,0,0,0,0,-1.9621,-1.9623,-1.9644,-1.9645,-1.963,-1.9639,-1.9641,-1.9646,-1.9653,-1.9653,-1.9647,-1.9646,-1.9659,-1.966,-1.9661,-1.9678,-1.9665,-1.9666,-1.9666,-1.9704,-1.9704,-1.9705,0,0,0,0,0,0,-1.962,-1.9623,-1.9644,-1.9634,-1.9636,-1.964,-1.9646,-1.9646,-1.965,-1.9654,-1.9654,-1.965,-1.9658,-1.966,-1.9672,-1.9679,-1.9666,-1.9667,-1.9703,-1.9704,-1.9705,-1.9712,0,0,0,0,0,0,-1.9619,-1.9622,-1.9628,-1.9634,-1.9637,-1.9654,-1.9646,-1.9647,-1.9651,-1.9651,-1.9657,-1.9658,-1.9658,-1.9671,-1.9673,-1.968,-1.9668,-1.9703,-1.9704,-1.9704,-1.9711,-1.9713,-1.9714,0,0,0,0,0,-1.9618,-1.9629,-1.9628,-1.9631,-1.9644,-1.9654,-1.9656,-1.9657,-1.9652,-1.9657,-1.966,-1.9657,-1.9678,-1.9672,-1.9674,-1.9681,-1.9702,-1.9703,-1.9704,-1.971,-1.9713,-1.9714,0,0,0,0,0,0,-1.9623,-1.963,-1.9629,-1.9642,-1.9648,-1.9653,-1.966,-1.9659,-1.9665,-1.9665,-1.9665,-1.9666,-1.9679,-1.9681,-1.9675,-1.9696,-1.9689,-1.9691,-1.9693,-1.9695,-1.9697,-1.9695,-1.9668,0,0,0,0,0,-1.9625,-1.9634,-1.9639,-1.965,-1.9653,-1.9656,-1.9661,-1.9661,-1.9667,-1.9669,-1.9673,-1.9678,-1.9686,-1.9691,-1.9698,-1.9712,-1.9713,-1.9718,-1.972,-1.9721,-1.9722,-1.973,-1.9732,-1.9708,-1.9708,-1.9708,0,0,-1.9631,-1.9636,-1.964,-1.9651,-1.9656,-1.9664,-1.9658,-1.9667,-1.9673,-1.967,-1.9682,-1.9685,-1.9691,-1.9704,-1.971,-1.9707,-1.9729,-1.9723,-1.9724,-1.9724,-1.9731,-1.9733,-1.9735,-1.9709,-1.9709,-1.9709,0,0,-1.9644,-1.9649,-1.9659,-1.9664,-1.9671,-1.9673,-1.9675,-1.9682,-1.9684,-1.9695,-1.9693,-1.9701,-1.9714,-1.9719,-1.9723,-1.974,-1.9737,-1.9742,-1.975,-1.9757,-1.9759,-1.9761,-1.9766,-1.9768,-1.9743,-1.9743,-1.9743,0,-1.9649,-1.9662,-1.9664,-1.9673,-1.9678,-1.9677,-1.9686,-1.9691,-1.97,-1.9703,-1.97,-1.9717,-1.9721,-1.9735,-1.9739,-1.9743,-1.9746,-1.9741,-1.9759,-1.9761,-1.9762,-1.9767,-1.977,-1.9744,-1.9744,-1.9744,-1.9744,0,-1.9668,-1.9677,-1.9684,-1.9693,-1.9699,-1.9709,-1.9712,-1.9718,-1.9718,-1.972,-1.9732,-1.9738,-1.9746,-1.975,-1.975,-1.9764,-1.9762,-1.9759,-1.9752,-1.9765,-1.977,-1.9772,-1.9745,-1.9744,-1.9744,-1.9744,0,0,-1.9684,-1.9695,-1.9697,-1.9701,-1.971,-1.9716,-1.9726,-1.9735,-1.974,-1.9747,-1.9755,-1.9767,-1.9764,-1.9769,-1.9769,-1.9776,-1.9789,-1.9772,-1.9772,-1.9775,-1.9804,-1.9806,-1.9808,-1.9788,-1.9788,-1.9789,-1.9804,0,-1.9697,-1.9715,-1.9717,-1.9732,-1.974,-1.974,-1.9748,-1.9755,-1.9758,-1.9765,-1.9768,-1.9777,-1.9773,-1.9776,-1.9782,-1.9786,-1.9795,-1.9785,-1.9795,-1.9795,-1.9792,-1.9811,-1.9813,-1.9826,-1.9806,-1.9806,-1.9806,0,-1.9715,-1.9723,-1.9739,-1.9747,-1.9751,-1.9758,-1.9767,-1.9774,-1.9781,-1.9783,-1.9789,-1.9789,-1.9799,-1.9793,-1.9807,-1.98,-1.9805,-1.9807,-1.9808,-1.9808,-1.9801,-1.9811,-1.9831,-1.9833,-1.981,-1.9809,-1.9809,0,-1.9724,-1.9739,-1.975,-1.9754,-1.9764,-1.9769,-1.9773,-1.978,-1.9785,-1.9793,-1.9796,-1.9805,-1.9809,-1.9816,-1.9819,-1.9814,-1.9832,-1.9827,-1.9834,-1.9834,-1.9837,-1.9836,-1.9857,-1.9841,-1.9841,-1.9841,-1.9841,0,-1.9739,-1.9749,-1.9755,-1.9762,-1.9773,-1.9776,-1.9787,-1.9791,-1.9797,-1.9804,-1.9805,-1.9812,-1.9815,-1.9823,-1.9825,-1.9836,-1.9839,-1.984,-1.984,-1.984,-1.9839,-1.9842,-1.984,-1.9842,-1.9841,-1.9841,-1.9841,0,-1.975,-1.9755,-1.9767,-1.9776,-1.9778,-1.9786,-1.9793,-1.98,-1.9803,-1.9813,-1.9816,-1.9821,-1.983,-1.9834,-1.9845,-1.9846,-1.9859,-1.9859,-1.9857,-1.9856,-1.9863,-1.9862,-1.9885,-1.9888,-1.9871,-1.9871,-1.9872,0,-1.9759,-1.9766,-1.9776,-1.9781,-1.9786,-1.9795,-1.98,-1.9804,-1.981,-1.9819,-1.9825,-1.9834,-1.9842,-1.9856,-1.9861,-1.987,-1.987,-1.9877,-1.9871,-1.987,-1.9869,-1.9868,-1.9869,-1.9878,-1.9878,-1.9878,-1.9878,0,-1.9773,-1.9776,-1.9784,-1.9793,-1.98,-1.9807,-1.9815,-1.9819,-1.9824,-1.983,-1.984,-1.9846,-1.9858,-1.9867,-1.9876,-1.988,-1.988,-1.9881,-1.9883,-1.9881,-1.9879,-1.988,-1.9859,-1.988,-1.988,-1.9879,-1.9879,-1.9879,-1.9783,-1.979,-1.9798,-1.9807,-1.9813,-1.982,-1.9827,-1.9832,-1.984,-1.985,-1.9852,-1.9863,-1.987,-1.9882,-1.9887,-1.9895,-1.9893,-1.9896,-1.9897,-1.9897,-1.9897,-1.9879,-1.9897,-1.9897,-1.9897,-1.9897,-1.9897,0,-1.9797,-1.9803,-1.9812,-1.9822,-1.9829,-1.9829,-1.9837,-1.9844,-1.9853,-1.986,-1.9868,-1.9879,-1.9888,-1.9894,-1.9904,-1.9909,-1.9909,-1.9911,-1.991,-1.9911,-1.9899,-1.9896,-1.9911,-1.9911,-1.9911,-1.9911,-1.9911,-1.9911,-1.9806,-1.9817,-1.982,-1.9835,-1.984,-1.9851,-1.9855,-1.9862,-1.9868,-1.988,-1.9888,-1.9892,-1.9899,-1.9909,-1.9917,-1.9919,-1.9922,-1.9924,-1.9926,-1.9914,-1.9912,-1.9911,-1.9908,-1.9925,-1.9925,-1.9937,-1.9937,-1.9937]},{"header":{"parameterUnit":"m.s-1","parameterCategory":1,"la1":30.2991,"la2":30.254,"lo1":-89.0895,"lo2":-89.0444,"dy":0.0017,"dx":0.0017,"nx":28,"ny":28,"refTime":"2024-12-04T03:00:00:Z","depth":0,"parameterNumber":3,"parameterNumberName":"V-component_of_WINDS"},"data":[0,0,0,0,0,0,0,0,0,0,0,0,0,0,0,0,0,0,0,0,0,0,0,0,0,0,0,0,0,0,0,0,0,0,0,0,0,0,0,0,0,0,0,0,0,0,0,0,0,0,0,0,0,0,0,0,0,0,4.3839,4.3839,0,4.3843,4.3843,4.3843,4.3797,4.3796,4.3794,4.3793,4.3796,4.3797,4.3798,0,0,0,0,0,0,0,0,0,0,0,0,0,4.3791,4.3792,4.3839,4.3839,4.3839,4.3843,4.3843,4.3843,4.3797,4.3796,4.3794,4.3793,4.3795,4.3797,4.3798,0,0,0,0,0,0,0,0,0,0,0,0,0,4.3805,4.3793,4.3839,4.3817,4.3815,4.3843,4.3843,4.3843,4.3797,4.3795,4.3794,4.3792,4.3795,4.3797,4.3799,4.3848,0,0,4.3804,4.3805,0,0,0,0,0,0,0,0,4.3804,4.3807,4.382,4.3818,4.3816,4.3818,4.3827,4.3845,4.3798,4.3804,4.3793,4.3791,4.3805,4.3806,4.381,4.3848,4.3848,4.3805,4.3806,4.3806,4.3807,0,0,0,0,0,0,0,4.3804,4.3807,4.3841,4.382,4.3818,4.3806,4.3806,4.383,4.3815,4.3803,4.38,4.3801,4.3803,4.3809,4.381,4.3848,4.3804,4.3806,4.3807,4.3808,4.3928,4.393,0,0,0,0,0,0,4.3806,4.3806,4.3841,4.3841,4.3806,4.3809,4.3809,4.3819,4.3814,4.3812,4.3803,4.3799,4.3806,4.3808,4.381,4.3868,4.3806,4.3808,4.3809,4.3926,4.3928,4.393,0,0,0,0,0,0,4.3805,4.3809,4.384,4.3823,4.3826,4.3812,4.3824,4.382,4.3826,4.3814,4.3811,4.3811,4.3805,4.3807,4.3839,4.3867,4.3809,4.3811,4.3923,4.3927,4.3929,4.3984,0,0,0,0,0,0,4.3804,4.3809,4.3828,4.3823,4.3827,4.387,4.3825,4.3822,4.3829,4.3824,4.3821,4.3819,4.3804,4.3837,4.3841,4.3869,4.3812,4.3921,4.3925,4.3928,4.398,4.3989,4.3997,0,0,0,0,0,4.3802,4.3843,4.3829,4.3834,4.385,4.3872,4.3874,4.3856,4.3832,4.385,4.3843,4.3819,4.3864,4.384,4.3845,4.3874,4.3919,4.3924,4.3928,4.3976,4.3987,4.3997,0,0,0,0,0,0,4.385,4.3842,4.3826,4.3867,4.3871,4.3864,4.3887,4.3868,4.3878,4.3873,4.3849,4.3849,4.3885,4.3882,4.3857,4.3922,4.3887,4.3893,4.3922,4.3932,4.3941,4.394,4.3814,0,0,0,0,0,4.3866,4.3885,4.3876,4.3912,4.3915,4.3901,4.391,4.3896,4.3898,4.3899,4.3894,4.3897,4.3912,4.3922,4.3935,4.398,4.3978,4.4002,4.401,4.4017,4.4022,4.4046,4.4057,4.3946,4.3946,4.3946,0,0,4.3898,4.3895,4.3908,4.3922,4.3923,4.3943,4.3902,4.3925,4.3939,4.3902,4.3932,4.3929,4.3931,4.397,4.3986,4.3969,4.4053,4.4023,4.4029,4.403,4.4052,4.4063,4.4072,4.3949,4.3948,4.3948,0,0,4.3966,4.3966,4.3997,4.3999,4.4002,4.3992,4.4,4.3996,4.3993,4.4023,4.3996,4.4012,4.4038,4.4041,4.4045,4.4116,4.4095,4.4121,4.4165,4.4188,4.4197,4.4205,4.423,4.424,4.4126,4.4126,4.4126,0,4.4005,4.4034,4.4015,4.404,4.4047,4.4015,4.4046,4.4049,4.4055,4.4061,4.4041,4.4074,4.4072,4.4112,4.4129,4.4134,4.4142,4.4121,4.4197,4.4205,4.4212,4.4236,4.4245,4.413,4.4129,4.4129,4.4129,0,4.4083,4.4103,4.4128,4.4136,4.4145,4.4173,4.4158,4.417,4.4156,4.4148,4.4179,4.4177,4.4189,4.4198,4.4183,4.4235,4.4224,4.4201,4.4166,4.4226,4.4248,4.4257,4.4134,4.4133,4.4132,4.4131,0,0,4.418,4.4178,4.4188,4.4191,4.4192,4.4208,4.4234,4.4247,4.4258,4.4264,4.4285,4.4308,4.4287,4.4293,4.4279,4.43,4.4356,4.4274,4.4274,4.429,4.4414,4.4431,4.4442,4.4342,4.4344,4.4345,4.4414,0,4.4247,4.4293,4.4277,4.4323,4.4342,4.4313,4.4336,4.4339,4.4333,4.4348,4.4341,4.4359,4.4329,4.4333,4.4352,4.4345,4.4381,4.434,4.4362,4.4363,4.4363,4.4454,4.4472,4.4537,4.4422,4.4424,4.4425,0,4.4331,4.4341,4.439,4.4389,4.4396,4.4417,4.4428,4.4443,4.4446,4.444,4.4447,4.4428,4.4454,4.4419,4.4454,4.4427,4.4435,4.4433,4.4435,4.4436,4.4398,4.4458,4.4557,4.4567,4.4438,4.4437,4.4436,0,4.4399,4.4424,4.4457,4.4461,4.446,4.4475,4.4476,4.4477,4.4486,4.4495,4.45,4.4512,4.4519,4.4529,4.4514,4.449,4.4552,4.4515,4.4548,4.4548,4.4562,4.4561,4.4664,4.4567,4.4567,4.4567,4.4566,0,4.4475,4.4506,4.4487,4.4507,4.4541,4.4523,4.4557,4.4553,4.4555,4.4574,4.4549,4.4567,4.4547,4.4563,4.4551,4.4583,4.4586,4.4582,4.4578,4.4584,4.4585,4.4589,4.4584,4.4569,4.4569,4.4568,4.4568,0,4.4556,4.4544,4.4578,4.4575,4.4575,4.46,4.4597,4.4615,4.4608,4.4632,4.4637,4.4625,4.4643,4.4629,4.4647,4.4639,4.4681,4.4671,4.468,4.4677,4.471,4.4708,4.482,4.4834,4.4728,4.4729,4.473,0,4.4605,4.4629,4.4628,4.464,4.4642,4.466,4.4669,4.4652,4.4662,4.4668,4.4686,4.4702,4.4714,4.4744,4.4737,4.475,4.474,4.4779,4.4742,4.4747,4.4741,4.474,4.4743,4.4786,4.4787,4.4788,4.4789,0,4.4695,4.4688,4.4703,4.4716,4.4728,4.4738,4.4745,4.4755,4.4738,4.4751,4.4769,4.4779,4.4797,4.4813,4.4824,4.4824,4.4804,4.4801,4.4809,4.4815,4.482,4.4818,4.47,4.4798,4.4798,4.4797,4.4796,4.4796,4.4761,4.4781,4.4784,4.4802,4.4806,4.4813,4.4831,4.4826,4.4841,4.4855,4.4844,4.4866,4.4869,4.4882,4.4884,4.4901,4.4885,4.4897,4.49,4.4903,4.4908,4.4817,4.4903,4.4903,4.4902,4.4902,4.4902,0,4.485,4.4851,4.4867,4.4879,4.4893,4.4873,4.488,4.4893,4.4913,4.4918,4.493,4.4952,4.4968,4.4962,4.4976,4.4991,4.4982,4.4995,4.4994,4.4994,4.4922,4.4913,4.5002,4.5002,4.5002,4.5002,4.5002,4.5002,4.4898,4.493,4.4925,4.4959,4.4959,4.4982,4.4987,4.4994,4.4998,4.5023,4.5037,4.5033,4.5034,4.5048,4.5062,4.506,4.5066,4.5083,4.5077,4.5009,4.4999,4.499,4.4982,4.5084,4.5084,4.5149,4.5149,4.515]}]]